This demonstration page uses our WeatherBlox Daily Observations layout. Learn more.

Left ArrowRight Arrow

Hourly Observations for July 6, 2022

Temp ( °F °C ) Dew Point ( °F °C ) Humidity (%) Winds ( mph kmh ) Pressure ( in mb ) Visibility ( mi km ) Precip ( " mm )
12:59 am 00:59 Mostly Cloudy 82 27.8 75 23.9 79 79 SW 8 13 29.92 1013 10 16 0.00 0.00
1:59 am 01:59 Mostly Cloudy 81 27.2 75 23.9 82 82 WSW 7 11 29.93 1013 10 16 0.00 0.00
2:59 am 02:59 Mostly Cloudy 81 27.2 74 23.3 79 79 W 10 17 29.93 1014 10 16 0.00 0.00
3:59 am 03:59 Mostly Cloudy 81 27.2 69 20.6 67 67 W 8 13 29.93 1014 10 16 0.00 0.00
4:59 am 04:59 Mostly Cloudy 79 26.1 69 20.6 72 72 WSW 7 11 29.92 1013 10 16 0.00 0.00
5:59 am 05:59 Mostly Cloudy 79 26.1 69 20.6 72 72 SW 6 9 29.93 1013 10 16 0.00 0.00
6:59 am 06:59 Mostly Cloudy 81 27.2 69 20.6 67 67 WSW 7 11 29.93 1013 10 16 0.00 0.00
7:59 am 07:59 Sunny N/A N/A N/A W 8 13 29.93 1014 10 16 0.00 0.00
8:59 am 08:59 Sunny 82 27.8 70 21.1 67 67 WSW 9 15 29.93 1014 10 16 0.00 0.00
9:59 am 09:59 Mostly Cloudy 82 27.8 70 21.1 67 67 WSW 9 15 29.94 1014 10 16 0.00 0.00
10:59 am 10:59 Mostly Cloudy 86 30 70 21.1 59 59 WNW 7 11 29.95 1014 10 16 0.00 0.00
11:59 am 11:59 Mostly Cloudy 86 30 70 21.1 59 59 NW 7 11 29.94 1014 10 16 0.00 0.00
12:59 pm 12:59 Sunny N/A N/A N/A W 6 9 29.94 1014 10 16 0.00 0.00
1:59 pm 13:59 Mostly Cloudy 94 34.4 68 20 43 43 NE 7 11 29.92 1013 10 16 0.00 0.00
2:59 pm 14:59 Mostly Cloudy N/A N/A N/A ENE 7 11 29.91 1013 10 16 0.00 0.00
3:59 pm 15:59 Mostly Cloudy 92 33.3 69 20.6 47 47 ENE 7 11 29.89 1012 10 16 0.00 0.00
4:59 pm 16:59 Mostly Cloudy 90 32.2 69 20.6 50 50 ENE 7 11 29.87 1012 10 16 0.00 0.00
5:59 pm 17:59 Mostly Cloudy 91 32.8 70 21.1 50 50 ENE 8 13 29.86 1011 10 16 0.00 0.00
6:59 pm 18:59 Mostly Cloudy 88 31.1 70 21.1 55 55 ESE 8 13 29.88 1012 10 16 0.00 0.00
7:59 pm 19:59 Mostly Cloudy 87 30.6 70 21.1 57 57 Calm 29.88 1012 10 16 0.00 0.00
8:59 pm 20:59 Mostly Cloudy 85 29.4 74 23.3 70 70 S 5 7 29.89 1012 10 16 0.00 0.00
9:59 pm 21:59 Mostly Cloudy 87 30.6 74 23.3 65 65 W 7 11 29.90 1013 10 16 0.00 0.00
10:59 pm 22:59 Mostly Cloudy 85 29.4 73 22.8 68 68 W 7 11 29.93 1013 10 16 0.00 0.00
11:59 pm 23:59 Mostly Cloudy 83 28.3 72 22.2 70 70 WSW 7 11 29.93 1013 10 16 0.00 0.00

Powered by AerisWeather